Regional Weather Roundup
Issued by NWS

Home | Current Version | Previous Version | Text Only | Print | Product List | Glossary On
Versions: 1 2 3 4 5 6 7 8 9 10 11 12 13 14 15 16 17 18 19 20 21 22 23 24 25 26 27 28 29 30 31 32 33 34 35 36 37 38 39 40 41 42 43 44 45 46 47 48 49 50
000
ASUS43 KFSD 232110
RWRSD

WEATHER ROUNDUP FOR SOUTH DAKOTA
NATIONAL WEATHER SERVICE SIOUX FALLS SD
400 PM CDT WED JUL 23 2014

NOTE: "FAIR" INDICATES FEW OR NO CLOUDS BELOW 12,000 FEET WITH NO
SIGNIFICANT WEATHER AND/OR OBSTRUCTIONS TO VISIBILITY.


SDZ001>005-009-010-012>017-232200-
NORTHWEST AND NORTH CENTRAL SOUTH DAKOTA

CITY           SKY/WX    TMP DP  RH WIND       PRES   REMARKS
BUFFALO          N/A     86  60  41 SE28G33   30.05F
FAITH            N/A     85  61  44 SE17G29   30.15F
MOBRIDGE       SUNNY     82  59  45 SE15      30.17F
$$

SDZ012>016-024>037-041>051-057-063-072>074-232200-
SOUTHWEST AND SOUTH CENTRAL SOUTH DAKOTA

CITY           SKY/WX    TMP DP  RH WIND       PRES   REMARKS
RAPID CTY ARPT SUNNY     83  64  52 SE18      30.16F
PIERRE         MOSUNNY   86  55  34 SE17G24   30.16F
CUSTER         SUNNY     79  60  52 SE10G20   30.31F
ELLSWORTH AFB  SUNNY     84  64  51 SE18      30.17F
PHILIP         SUNNY     92  59  33 S13G18    30.13F
PINE RIDGE     SUNNY     88  66  48 E9        30.16F
WINNER         FAIR      88  52  29 SE12      30.20F
$$

SDZ004>011-016>023-039-040-232200-
NORTHEAST SOUTH DAKOTA

CITY           SKY/WX    TMP DP  RH WIND       PRES   REMARKS
ABERDEEN       SUNNY     80  56  43 SE9       30.23F
WATERTOWN      PTSUNNY   80  53  39 S6        30.25F
SISSETON         N/A     77  56  48 VRB5      30.24F
$$

SDZ017-020-022-023-036>040-048>070-232200-
SOUTHEAST SOUTH DAKOTA

CITY           SKY/WX    TMP DP  RH WIND       PRES   REMARKS
SIOUX FALLS    MOSUNNY   80  57  45 NE7       30.23F
HURON          SUNNY     81  55  40 E10       30.21F
CHAMBERLAIN    MOSUNNY   85  52  31 SE12G18   30.19F
MITCHELL       SUNNY     83  58  42 VRB6      30.21F
YANKTON        SUNNY     81  59  47 E7        30.21F
$$

ABBREVIATIONS USED IN REMARKS
   TC - TEMPERATURE IN CELSIUS
  WCI - WIND CHILL INDEX
   HX - HEAT INDEX
  VSB - VISIBILITY



USA.gov is the U.S. government's official web portal to all federal, state and local government web resources and services.